Precipitable_Water
2.14 2.17 2.28 2.33 2.35 2.32 2.27 2.18 2.11 2.05 2.01 1.97 1.99 1.97 1.88 1.84 1.82 1.80 1.76 1.74 1.74 1.70 1.63 1.61 1.61 1.60 1.68 1.76 1.79 1.78 1.74 1.75 1.73 1.74 1.73 1.71 1.75 1.74 1.68 1.66 1.66 1.74 1.86 1.97 2.02 2.05 2.05 2.10 2.12 2.16 2.16 2.20 2.24 2.28 2.33 2.31 2.30 2.29 2.31 2.30 2.29 2.18 2.07 2.02 1.99 1.97 1.92 1.88 1.88 1.87 1.85 1.85 1.85 1.88 1.85 1.86 1.93 1.98 1.99 2.01 1.99 2.01 2.01 2.03 1.98
2.10 2.23 2.26 2.28 2.30 2.30 2.24 2.14 2.06 2.01 1.99 1.97 1.93 1.87 1.84 1.84 1.83 1.81 1.81 1.80 1.77 1.76 1.76 1.74 1.71 1.72 1.76 1.77 1.77 1.73 1.71 1.71 1.69 1.68 1.69 1.70 1.68 1.66 1.72 1.85 1.94 2.01 2.09 2.08 2.08 2.12 2.11 2.16 2.17 2.19 2.19 2.20 2.26 2.30 2.26 2.19 2.23 2.32 2.32 2.33 2.34 2.32 2.27 2.26 2.20 2.09 2.02 1.94 1.89 1.92 1.93 1.93 1.91 1.90 1.89 1.93 2.02 2.06 2.06 2.06 2.01 2.07 2.12 2.08 1.97
2.15 2.22 2.25 2.23 2.23 2.20 2.16 2.09 2.03 2.01 1.99 1.96 1.92 1.88 1.87 1.85 1.83 1.82 1.80 1.75 1.74 1.74 1.72 1.69 1.68 1.70 1.74 1.75 1.74 1.70 1.66 1.65 1.67 1.70 1.66 1.65 1.69 1.81 1.93 2.02 2.09 2.10 2.09 2.11 2.10 2.13 2.15 2.18 2.13 2.15 2.18 2.19 2.25 2.23 2.24 2.26 2.30 2.32 2.30 2.31 2.33 2.32 2.32 2.32 2.30 2.28 2.22 2.13 1.98 2.00 2.04 2.05 1.98 1.96 1.96 2.10 2.15 2.22 2.22 2.13 2.04 1.98 2.10 2.05 1.87
2.06 2.17 2.21 2.17 2.17 2.13 2.07 2.02 2.01 2.00 1.94 1.87 1.83 1.85 1.86 1.83 1.78 1.76 1.74 1.72 1.70 1.68 1.64 1.62 1.63 1.66 1.70 1.72 1.71 1.69 1.66 1.68 1.68 1.63 1.64 1.75 1.84 1.94 2.01 2.13 2.10 2.12 2.10 2.10 2.16 2.15 2.11 2.12 2.11 2.14 2.18 2.27 2.25 2.29 2.32 2.32 2.32 2.32 2.32 2.31 2.33 2.35 2.36 2.31 2.26 2.29 2.28 2.22 2.11 2.11 2.14 2.20 2.22 2.20 2.11 2.16 2.24 2.22 2.15 2.21 2.12 2.06 2.02 1.93 1.81
2.04 2.14 2.16 2.10 2.10 2.06 1.99 1.97 1.99 1.95 1.84 1.81 1.77 1.73 1.77 1.75 1.73 1.71 1.70 1.69 1.68 1.64 1.61 1.59 1.59 1.64 1.69 1.74 1.74 1.72 1.69 1.63 1.62 1.69 1.76 1.83 1.87 1.96 2.05 2.05 2.08 2.10 2.13 2.15 2.15 2.12 2.10 2.13 2.14 2.17 2.21 2.25 2.25 2.27 2.28 2.27 2.28 2.31 2.33 2.35 2.36 2.37 2.35 2.36 2.32 2.30 2.31 2.26 2.25 2.22 2.22 2.24 2.23 2.26 2.28 2.24 2.25 2.27 2.20 2.21 2.15 2.09 2.03 1.89 1.78
2.03 2.10 2.12 2.06 2.07 2.03 1.99 1.98 1.96 1.91 1.82 1.77 1.73 1.65 1.65 1.68 1.69 1.68 1.66 1.63 1.59 1.58 1.60 1.58 1.62 1.73 1.84 1.82 1.78 1.74 1.62 1.62 1.70 1.74 1.78 1.81 1.87 1.96 2.02 2.04 2.08 2.10 2.15 2.15 2.13 2.07 2.15 2.13 2.15 2.20 2.23 2.24 2.25 2.25 2.26 2.28 2.30 2.31 2.34 2.36 2.39 2.41 2.38 2.37 2.34 2.33 2.30 2.25 2.25 2.26 2.25 2.26 2.24 2.25 2.26 2.24 2.30 2.24 2.20 2.18 2.14 2.14 2.03 1.91 1.76
2.05 2.09 2.07 2.05 2.06 2.04 2.03 2.01 1.93 1.90 1.83 1.75 1.67 1.57 1.52 1.56 1.61 1.62 1.61 1.56 1.55 1.58 1.61 1.65 1.70 1.84 1.88 1.82 1.75 1.66 1.57 1.67 1.73 1.74 1.77 1.83 1.88 1.94 1.99 2.02 2.05 2.09 2.13 2.09 2.07 2.07 2.12 2.11 2.13 2.19 2.19 2.22 2.24 2.24 2.24 2.27 2.30 2.32 2.36 2.39 2.41 2.42 2.42 2.39 2.39 2.38 2.35 2.30 2.23 2.25 2.25 2.27 2.26 2.23 2.25 2.27 2.25 2.26 2.19 2.18 2.16 2.14 2.06 1.95 1.79
2.09 2.09 2.07 2.07 2.08 2.03 2.05 2.02 1.97 1.90 1.84 1.71 1.55 1.46 1.47 1.50 1.54 1.55 1.50 1.52 1.60 1.63 1.64 1.71 1.77 1.83 1.83 1.78 1.72 1.58 1.62 1.70 1.75 1.76 1.80 1.89 1.92 1.94 1.98 2.02 2.12 2.14 2.10 2.07 2.05 2.11 2.09 2.13 2.10 2.13 2.16 2.17 2.16 2.19 2.22 2.26 2.30 2.32 2.33 2.37 2.40 2.41 2.42 2.40 2.40 2.38 2.40 2.35 2.29 2.25 2.21 2.30 2.33 2.26 2.21 2.23 2.28 2.25 2.18 2.15 2.19 2.14 2.07 1.96 1.84
2.04 2.10 2.12 2.13 2.14 2.05 2.09 2.08 2.00 1.90 1.78 1.62 1.44 1.45 1.44 1.42 1.42 1.42 1.45 1.51 1.60 1.66 1.72 1.77 1.80 1.83 1.84 1.81 1.71 1.62 1.67 1.76 1.79 1.79 1.84 1.89 1.94 1.96 2.01 2.08 2.09 2.05 2.05 2.10 2.04 2.05 2.17 2.11 2.05 2.08 2.12 2.12 2.14 2.17 2.19 2.21 2.26 2.30 2.32 2.33 2.38 2.41 2.40 2.40 2.41 2.44 2.40 2.37 2.29 2.29 2.27 2.28 2.36 2.27 2.24 2.24 2.30 2.23 2.17 2.16 2.15 2.13 2.11 2.01 1.90
2.02 2.08 2.12 2.15 2.20 2.07 2.09 2.11 2.03 1.87 1.71 1.58 1.39 1.36 1.30 1.25 1.30 1.36 1.41 1.50 1.63 1.73 1.78 1.80 1.82 1.85 1.85 1.82 1.70 1.70 1.77 1.82 1.82 1.78 1.83 1.88 1.91 1.94 1.98 2.07 2.10 2.06 2.08 2.01 2.06 2.09 2.09 2.07 2.08 2.09 2.10 2.12 2.11 2.15 2.18 2.19 2.23 2.27 2.29 2.31 2.35 2.38 2.40 2.40 2.40 2.40 2.39 2.40 2.36 2.33 2.25 2.29 2.34 2.19 2.30 2.32 2.27 2.20 2.17 2.17 2.15 2.14 2.13 2.01 1.89
1.98 2.04 2.08 2.11 2.17 1.98 2.01 2.03 2.00 1.91 1.76 1.57 1.42 1.34 1.27 1.24 1.24 1.35 1.46 1.54 1.65 1.73 1.80 1.82 1.86 1.85 1.83 1.78 1.72 1.79 1.83 1.84 1.80 1.76 1.85 1.91 1.94 1.95 1.96 2.05 2.08 2.04 1.97 1.99 2.04 2.02 2.05 2.06 2.07 2.05 2.07 2.10 2.10 2.13 2.15 2.21 2.24 2.29 2.29 2.28 2.31 2.36 2.37 2.45 2.44 2.33 2.37 2.37 2.34 2.29 2.27 2.28 2.19 2.32 2.27 2.29 2.27 2.21 2.16 2.15 2.12 2.14 2.13 2.02 1.93
1.94 1.98 2.00 2.06 2.06 1.93 1.93 1.94 1.91 1.86 1.77 1.64 1.49 1.37 1.34 1.33 1.33 1.35 1.46 1.59 1.69 1.77 1.83 1.85 1.85 1.84 1.81 1.77 1.79 1.85 1.88 1.86 1.81 1.80 1.88 1.94 1.96 1.94 1.97 2.04 2.08 2.01 1.98 1.96 2.00 2.06 2.07 2.05 2.04 2.05 2.05 2.04 2.08 2.12 2.13 2.19 2.22 2.27 2.28 2.27 2.25 2.28 2.32 2.37 2.36 2.36 2.32 2.39 2.35 2.31 2.32 2.32 2.23 2.31 2.28 2.26 2.28 2.27 2.18 2.12 2.12 2.12 2.11 2.04 1.91
1.91 1.93 1.97 2.02 1.93 1.96 1.96 1.94 1.88 1.83 1.73 1.62 1.52 1.44 1.41 1.43 1.43 1.47 1.56 1.67 1.76 1.81 1.82 1.84 1.84 1.83 1.79 1.77 1.82 1.87 1.89 1.85 1.78 1.82 1.90 1.97 1.97 1.94 2.00 2.01 1.99 1.99 1.97 1.97 1.99 2.05 2.08 2.09 2.07 2.05 2.04 2.05 2.06 2.11 2.13 2.16 2.19 2.22 2.25 2.25 2.25 2.26 2.27 2.31 2.33 2.30 2.29 2.30 2.35 2.38 2.33 2.31 2.31 2.30 2.28 2.27 2.26 2.26 2.18 2.13 2.13 2.14 2.12 2.05 1.93
1.85 1.90 1.95 1.98 1.97 1.94 1.95 1.94 1.93 1.90 1.83 1.70 1.60 1.54 1.52 1.53 1.57 1.66 1.73 1.79 1.80 1.82 1.85 1.84 1.82 1.81 1.77 1.79 1.83 1.87 1.87 1.82 1.77 1.84 1.94 1.99 2.00 2.00 2.00 1.97 1.94 1.92 1.94 1.97 1.99 2.04 2.07 2.06 2.06 2.07 2.07 2.05 2.08 2.09 2.10 2.13 2.15 2.16 2.20 2.23 2.24 2.24 2.25 2.27 2.28 2.25 2.21 2.26 2.32 2.35 2.31 2.28 2.29 2.30 2.28 2.27 2.26 2.24 2.20 2.18 2.18 2.17 2.13 2.06 1.96
1.78 1.85 1.90 1.96 1.99 1.93 1.97 1.97 1.95 1.91 1.90 1.87 1.81 1.78 1.77 1.75 1.77 1.80 1.83 1.83 1.82 1.82 1.82 1.82 1.81 1.79 1.77 1.79 1.82 1.84 1.85 1.79 1.80 1.88 1.96 1.99 2.01 2.01 1.95 1.91 1.90 1.90 1.94 1.97 2.00 2.04 2.05 2.06 2.07 2.06 2.06 2.05 2.07 2.09 2.08 2.10 2.11 2.11 2.14 2.20 2.20 2.20 2.23 2.26 2.25 2.21 2.18 2.20 2.24 2.31 2.29 2.34 2.30 2.30 2.27 2.24 2.26 2.24 2.21 2.20 2.20 2.18 2.13 2.06 1.99
1.79 1.81 1.85 1.90 1.99 2.02 1.96 1.99 1.96 1.94 1.92 1.89 1.85 1.83 1.80 1.81 1.81 1.81 1.81 1.81 1.80 1.80 1.77 1.75 1.75 1.76 1.80 1.81 1.82 1.83 1.79 1.78 1.84 1.93 1.99 2.01 2.04 2.04 1.96 1.91 1.90 1.91 1.93 1.96 2.01 2.06 2.08 2.09 2.10 2.08 2.07 2.03 2.01 2.03 2.06 2.07 2.06 2.10 2.13 2.14 2.17 2.19 2.20 2.20 2.19 2.18 2.16 2.16 2.21 2.24 2.27 2.32 2.31 2.29 2.27 2.25 2.26 2.26 2.22 2.20 2.19 2.19 2.14 2.05 2.03
1.72 1.77 1.76 1.80 1.88 1.95 1.93 1.92 1.87 1.85 1.85 1.84 1.82 1.79 1.76 1.75 1.74 1.72 1.72 1.71 1.71 1.70 1.69 1.72 1.76 1.83 1.87 1.86 1.83 1.79 1.75 1.80 1.89 2.00 2.12 2.08 2.06 2.03 2.02 1.97 1.95 1.95 1.93 1.96 2.03 2.06 2.10 2.14 2.13 2.11 2.10 2.08 2.03 2.00 2.00 2.01 2.03 2.04 2.08 2.10 2.12 2.17 2.16 2.14 2.15 2.19 2.20 2.17 2.19 2.21 2.27 2.32 2.35 2.29 2.27 2.26 2.27 2.28 2.26 2.23 2.19 2.19 2.16 2.06 2.03
1.65 1.68 1.69 1.74 1.77 1.84 1.90 1.86 1.83 1.74 1.76 1.73 1.73 1.71 1.69 1.67 1.66 1.65 1.65 1.65 1.68 1.71 1.75 1.78 1.81 1.85 1.87 1.85 1.78 1.74 1.76 1.85 1.96 2.04 2.10 2.09 2.09 2.05 2.03 2.00 1.98 1.98 1.97 1.98 2.04 2.07 2.10 2.12 2.13 2.12 2.12 2.10 2.05 2.01 1.99 1.96 2.00 2.00 2.03 2.06 2.08 2.09 2.11 2.16 2.18 2.22 2.22 2.21 2.20 2.23 2.23 2.25 2.27 2.27 2.28 2.27 2.28 2.27 2.27 2.26 2.21 2.21 2.19 2.12 2.05
1.58 1.59 1.63 1.65 1.67 1.73 1.80 1.86 1.81 1.73 1.70 1.73 1.71 1.67 1.61 1.60 1.59 1.61 1.64 1.70 1.76 1.77 1.81 1.82 1.83 1.84 1.83 1.78 1.74 1.76 1.83 1.95 2.08 2.11 2.09 2.09 2.09 2.01 1.99 1.99 1.96 1.91 1.89 1.90 1.97 2.02 2.05 2.06 2.09 2.09 2.10 2.10 2.08 2.03 2.01 1.98 1.97 1.99 1.98 2.01 2.04 2.06 2.10 2.19 2.25 2.25 2.23 2.15 2.17 2.22 2.24 2.22 2.23 2.24 2.27 2.28 2.30 2.27 2.28 2.28 2.24 2.22 2.20 2.15 2.08
1.55 1.55 1.57 1.59 1.62 1.61 1.68 1.73 1.76 1.73 1.70 1.70 1.70 1.72 1.72 1.62 1.64 1.68 1.72 1.77 1.79 1.82 1.82 1.80 1.79 1.79 1.80 1.82 1.84 1.86 1.95 2.05 2.08 2.08 2.08 2.08 1.96 1.90 1.87 1.84 1.80 1.80 1.82 1.88 1.95 2.01 2.04 2.05 2.06 2.07 2.09 2.08 2.06 2.03 2.01 1.96 1.91 1.91 1.96 2.01 2.04 2.09 2.14 2.25 2.29 2.25 2.25 2.18 2.13 2.17 2.22 2.19 2.18 2.20 2.24 2.29 2.31 2.29 2.27 2.26 2.26 2.21 2.19 2.19 2.11
1.44 1.47 1.53 1.56 1.58 1.57 1.59 1.65 1.70 1.71 1.72 1.74 1.77 1.74 1.75 1.74 1.71 1.70 1.78 1.83 1.87 1.87 1.85 1.82 1.81 1.89 1.97 2.02 1.94 1.94 2.02 2.08 2.10 2.06 2.04 1.96 1.88 1.82 1.82 1.80 1.79 1.80 1.85 1.92 1.96 2.01 2.06 2.07 2.07 2.09 2.07 2.04 2.04 2.05 2.02 1.97 1.93 1.89 1.93 1.97 2.02 2.06 2.14 2.19 2.21 2.20 2.23 2.22 2.16 2.16 2.17 2.15 2.15 2.15 2.20 2.26 2.30 2.30 2.29 2.27 2.29 2.25 2.22 2.20 2.17
1.28 1.34 1.40 1.46 1.49 1.50 1.55 1.62 1.68 1.70 1.73 1.76 1.79 1.81 1.82 1.82 1.79 1.84 1.90 1.93 1.91 1.93 1.87 1.87 1.95 1.97 2.03 2.00 1.99 1.98 1.97 1.99 1.99 1.95 1.90 1.88 1.86 1.85 1.85 1.83 1.83 1.84 1.85 1.90 1.97 2.05 2.12 2.14 2.14 2.13 2.12 2.10 2.10 2.09 2.06 2.06 2.01 1.99 1.97 1.97 2.03 2.09 2.13 2.13 2.16 2.18 2.18 2.23 2.22 2.17 2.13 2.14 2.13 2.10 2.15 2.21 2.27 2.29 2.31 2.30 2.31 2.30 2.22 2.20 2.13
1.25 1.30 1.32 1.38 1.37 1.42 1.43 1.50 1.58 1.70 1.74 1.79 1.80 1.84 1.83 1.86 1.86 1.85 1.84 1.85 1.81 1.79 1.77 1.79 1.82 1.87 1.86 1.85 1.83 1.84 1.89 1.90 1.85 1.81 1.78 1.75 1.71 1.75 1.82 1.85 1.85 1.85 1.85 1.88 1.96 2.04 2.09 2.14 2.16 2.17 2.16 2.16 2.16 2.09 2.06 2.12 2.10 2.09 2.06 2.10 2.10 2.07 2.09 2.17 2.16 2.18 2.16 2.21 2.21 2.19 2.12 2.10 2.13 2.09 2.10 2.22 2.24 2.26 2.28 2.30 2.30 2.30 2.27 2.22 2.11
1.33 1.35 1.38 1.38 1.39 1.37 1.37 1.40 1.47 1.53 1.59 1.69 1.74 1.76 1.78 1.78 1.77 1.78 1.76 1.73 1.70 1.68 1.69 1.71 1.74 1.78 1.80 1.80 1.77 1.78 1.80 1.84 1.85 1.86 1.89 1.93 1.95 1.94 1.94 1.92 1.92 1.92 1.94 1.98 2.02 2.08 2.12 2.16 2.21 2.22 2.22 2.20 2.16 2.14 2.05 2.03 2.08 2.03 1.99 1.99 2.02 2.04 2.08 2.17 2.16 2.14 2.15 2.18 2.18 2.15 2.09 2.06 2.08 2.06 2.08 2.15 2.22 2.24 2.28 2.32 2.30 2.29 2.29 2.23 2.16
1.44 1.45 1.45 1.43 1.42 1.42 1.43 1.44 1.44 1.45 1.46 1.50 1.54 1.59 1.64 1.63 1.62 1.61 1.62 1.63 1.64 1.66 1.70 1.74 1.79 1.82 1.83 1.79 1.78 1.80 1.82 1.85 1.89 1.93 1.96 1.97 1.95 1.96 2.00 2.03 2.08 2.07 2.07 2.04 2.05 2.10 2.13 2.16 2.23 2.30 2.20 2.21 2.14 2.07 2.17 2.10 2.06 2.00 1.95 1.98 2.02 2.02 2.01 2.15 2.19 2.13 2.12 2.15 2.17 2.12 2.08 2.03 2.00 2.00 2.02 2.08 2.18 2.24 2.28 2.30 2.32 2.34 2.32 2.31 2.24
1.53 1.47 1.46 1.49 1.50 1.51 1.51 1.52 1.53 1.52 1.50 1.52 1.55 1.61 1.59 1.60 1.64 1.69 1.71 1.72 1.70 1.70 1.73 1.76 1.79 1.81 1.83 1.84 1.85 1.83 1.88 1.93 1.97 2.00 2.01 2.04 2.03 2.02 2.04 2.06 2.09 2.11 2.16 2.11 2.12 2.11 2.12 2.07 1.98 2.08 2.07 2.15 2.23 2.22 2.23 2.08 2.04 2.01 1.93 1.93 1.99 2.00 1.97 2.04 2.15 2.18 2.15 2.12 2.13 2.05 2.03 1.98 1.93 1.90 1.94 2.02 2.13 2.21 2.26 2.28 2.30 2.32 2.30 2.31 2.28
1.51 1.47 1.51 1.50 1.55 1.58 1.60 1.59 1.56 1.58 1.59 1.64 1.66 1.67 1.71 1.75 1.76 1.79 1.77 1.74 1.73 1.70 1.73 1.77 1.80 1.84 1.86 1.91 1.89 1.92 1.94 1.96 1.99 2.03 2.03 2.07 2.05 2.05 2.05 2.08 2.09 2.11 2.23 2.19 2.16 2.16 2.06 2.04 2.07 2.11 2.17 2.21 2.23 2.23 2.22 2.30 2.18 2.12 2.06 2.00 2.01 2.01 1.98 2.00 2.09 2.17 2.19 2.12 2.05 1.96 1.92 1.81 1.76 1.80 1.89 1.99 2.11 2.22 2.28 2.28 2.27 2.31 2.33 2.32 2.29
1.60 1.58 1.56 1.55 1.52 1.55 1.61 1.61 1.61 1.61 1.59 1.62 1.64 1.66 1.72 1.72 1.74 1.74 1.74 1.73 1.67 1.66 1.72 1.80 1.84 1.85 1.90 1.94 1.96 1.95 1.95 1.96 1.98 1.98 2.00 2.02 2.01 2.03 2.05 2.06 2.09 2.11 2.21 2.24 2.19 2.14 2.06 2.06 2.09 2.15 2.22 2.29 2.32 2.25 2.19 2.20 2.27 2.28 2.24 2.18 2.07 2.00 1.98 1.98 2.01 2.06 2.07 2.07 2.07 1.94 1.78 1.76 1.84 1.94 2.01 2.09 2.17 2.19 2.24 2.28 2.30 2.29 2.29 2.29 2.28
1.59 1.54 1.59 1.55 1.56 1.58 1.60 1.57 1.58 1.57 1.58 1.60 1.57 1.66 1.68 1.67 1.65 1.68 1.69 1.72 1.72 1.75 1.78 1.80 1.83 1.91 1.96 1.96 1.98 1.93 1.94 1.92 1.91 1.93 1.97 1.98 2.02 2.03 2.04 2.05 2.09 2.12 2.17 2.24 2.26 2.13 2.11 2.15 2.16 2.14 2.16 2.18 2.26 2.23 2.23 2.22 2.15 2.09 2.09 2.16 2.11 2.02 1.98 1.98 2.00 2.00 2.01 2.00 1.99 1.91 1.87 1.93 2.01 2.09 2.15 2.19 2.21 2.23 2.22 2.24 2.28 2.29 2.33 2.37 2.31
1.65 1.60 1.58 1.58 1.59 1.59 1.55 1.55 1.54 1.55 1.57 1.54 1.53 1.52 1.57 1.58 1.62 1.64 1.69 1.73 1.78 1.83 1.84 1.83 1.87 1.92 1.96 2.01 1.99 1.93 1.90 1.89 1.89 1.94 1.94 1.97 2.01 2.04 2.05 2.06 2.07 2.12 2.16 2.20 2.20 2.13 2.09 2.13 2.17 2.16 2.18 2.18 2.16 2.18 2.29 2.21 2.18 2.08 2.08 2.13 2.13 2.06 2.01 1.99 1.95 1.94 1.91 1.90 1.94 2.02 2.03 2.02 2.04 2.10 2.17 2.19 2.22 2.25 2.27 2.26 2.26 2.29 2.32 2.32 2.30
1.66 1.67 1.65 1.62 1.63 1.59 1.59 1.60 1.59 1.54 1.55 1.53 1.58 1.59 1.61 1.59 1.64 1.70 1.78 1.80 1.85 1.86 1.90 1.94 1.95 1.96 1.98 2.00 2.02 2.03 2.01 2.01 1.99 1.99 2.00 2.03 2.06 2.09 2.10 2.14 2.15 2.15 2.14 2.16 2.17 2.11 2.13 2.15 2.12 2.13 2.16 2.18 2.16 2.20 2.30 2.20 2.18 2.06 2.05 2.09 2.13 2.07 1.99 1.93 1.87 1.79 1.76 1.89 1.99 2.03 2.08 2.06 2.04 2.08 2.14 2.17 2.18 2.21 2.25 2.27 2.29 2.30 2.31 2.32 2.31
1.63 1.65 1.69 1.73 1.70 1.67 1.64 1.66 1.64 1.66 1.57 1.59 1.60 1.62 1.66 1.71 1.75 1.80 1.82 1.86 1.88 1.87 1.91 1.94 1.95 1.98 2.01 2.01 2.03 2.05 2.06 2.02 2.02 2.05 2.07 2.07 2.06 2.08 2.09 2.08 2.05 2.08 2.09 2.11 2.08 2.12 2.19 2.25 2.27 2.26 2.25 2.25 2.21 2.18 2.16 2.25 2.17 2.03 2.03 2.07 2.15 2.08 1.97 1.87 1.75 1.73 1.85 1.95 1.98 2.03 2.04 2.04 2.02 2.01 2.06 2.09 2.15 2.18 2.22 2.25 2.29 2.31 2.35 2.36 2.31
1.72 1.67 1.67 1.69 1.66 1.67 1.65 1.67 1.69 1.68 1.67 1.62 1.64 1.67 1.71 1.77 1.80 1.82 1.86 1.88 1.91 1.93 1.92 1.92 1.94 1.98 2.01 2.03 2.06 2.07 2.08 2.07 2.09 2.11 2.10 2.09 2.07 2.05 2.05 2.01 1.94 2.02 2.09 2.08 2.08 2.12 2.16 2.19 2.21 2.27 2.27 2.27 2.20 2.11 2.12 2.23 2.13 2.02 2.05 2.09 2.08 2.04 1.93 1.78 1.71 1.75 1.89 1.96 1.97 1.98 1.96 1.97 1.97 1.97 2.03 2.05 2.11 2.16 2.15 2.22 2.29 2.31 2.34 2.34 2.25
1.78 1.78 1.74 1.66 1.70 1.73 1.71 1.70 1.71 1.69 1.70 1.68 1.66 1.66 1.71 1.76 1.81 1.88 1.91 1.89 1.92 1.94 1.94 1.96 1.99 2.02 2.05 2.09 2.09 2.10 2.12 2.15 2.14 2.12 2.10 2.02 1.98 1.93 1.92 1.98 2.05 2.09 2.08 2.11 2.07 2.09 2.11 2.10 2.11 2.18 2.17 2.17 2.14 2.09 2.12 2.11 2.12 2.06 2.04 2.05 2.09 2.02 1.86 1.69 1.68 1.76 1.85 1.86 1.88 1.83 1.84 1.93 1.97 1.93 1.98 2.06 2.16 2.16 2.16 2.17 2.26 2.32 2.29 2.29 2.28
1.82 1.78 1.75 1.76 1.71 1.71 1.71 1.75 1.77 1.74 1.76 1.76 1.75 1.76 1.79 1.79 1.83 1.84 1.88 1.92 1.93 1.93 1.95 1.98 1.99 2.02 2.04 2.05 2.10 2.16 2.21 2.20 2.17 2.07 2.02 1.94 1.91 1.92 2.01 2.06 2.03 2.02 1.98 2.03 2.05 2.04 2.06 2.12 2.21 2.17 2.15 2.16 2.15 2.13 2.12 2.07 2.02 2.01 2.08 2.05 2.02 1.97 1.76 1.64 1.68 1.78 1.81 1.84 1.79 1.75 1.75 1.82 1.87 1.88 1.95 2.02 2.11 2.12 2.15 2.15 2.20 2.27 2.31 2.33 2.27
1.84 1.83 1.80 1.82 1.78 1.78 1.82 1.78 1.80 1.77 1.76 1.79 1.82 1.85 1.87 1.87 1.86 1.88 1.88 1.96 1.95 1.94 1.96 1.97 1.99 2.03 2.08 2.13 2.22 2.20 2.26 2.21 2.12 2.08 1.94 1.92 1.97 1.88 1.92 2.00 1.93 1.90 1.93 1.97 2.04 1.95 2.03 2.17 2.34 2.34 2.20 2.14 2.15 2.08 2.11 2.03 2.07 2.07 2.05 2.01 1.99 1.87 1.64 1.64 1.68 1.73 1.80 1.76 1.77 1.69 1.67 1.69 1.71 1.81 1.90 2.01 2.05 2.12 2.13 2.15 2.20 2.28 2.34 2.37 2.28
1.97 1.96 1.92 1.85 1.83 1.89 1.88 1.79 1.79 1.82 1.84 1.83 1.86 1.89 1.93 1.91 1.93 1.94 1.97 2.01 1.98 1.97 2.01 2.05 2.07 2.10 2.19 2.22 2.24 2.26 2.25 2.18 2.09 1.99 1.89 1.86 1.85 1.85 1.87 1.91 1.91 1.87 1.86 1.88 1.86 1.91 1.97 2.05 2.19 2.30 2.30 2.14 2.13 2.10 2.10 2.04 2.07 2.08 2.04 1.97 1.94 1.76 1.63 1.65 1.70 1.79 1.82 1.83 1.75 1.73 1.66 1.62 1.62 1.71 1.84 1.92 1.99 2.04 2.07 2.13 2.18 2.29 2.36 2.35 2.31
2.01 2.00 1.98 1.94 1.82 1.84 1.89 1.91 1.86 1.85 1.86 1.85 1.85 1.92 1.97 1.96 1.95 1.96 1.99 2.00 2.03 2.05 2.07 2.10 2.12 2.18 2.28 2.23 2.27 2.28 2.22 2.09 1.98 1.92 1.86 1.82 1.80 1.83 1.84 1.84 1.82 1.81 1.79 1.78 1.83 1.98 1.98 1.99 2.03 2.20 2.26 2.22 2.14 2.09 2.04 2.06 2.04 1.99 2.01 1.95 1.84 1.70 1.68 1.64 1.69 1.75 1.78 1.72 1.72 1.73 1.66 1.62 1.61 1.63 1.71 1.82 1.91 1.96 2.03 2.11 2.14 2.19 2.24 2.24 2.28
2.03 2.07 2.08 2.04 1.96 1.98 1.97 1.94 1.90 1.90 1.92 1.94 1.94 1.96 1.97 1.98 2.00 2.01 2.01 2.07 2.11 2.13 2.18 2.16 2.20 2.25 2.19 2.31 2.31 2.23 2.09 1.95 1.88 1.87 1.80 1.78 1.77 1.76 1.73 1.73 1.74 1.74 1.75 1.81 1.88 1.91 1.95 2.07 2.07 2.12 2.23 2.22 2.09 2.11 2.09 2.07 1.97 1.95 1.90 1.82 1.77 1.67 1.67 1.66 1.69 1.72 1.68 1.71 1.68 1.70 1.67 1.58 1.57 1.61 1.62 1.72 1.83 1.92 1.96 2.05 2.14 2.16 2.19 2.19 2.20
2.08 2.08 2.08 2.07 2.00 1.96 1.93 1.93 1.92 1.93 1.92 1.93 1.96 1.94 1.95 1.95 1.92 2.00 2.03 2.08 2.15 2.20 2.23 2.21 2.24 2.26 2.30 2.30 2.24 2.09 1.93 1.82 1.83 1.83 1.79 1.73 1.71 1.70 1.69 1.72 1.74 1.76 1.77 1.78 1.80 1.83 1.91 1.94 2.03 2.01 2.00 2.05 2.10 2.08 2.03 1.94 1.92 1.85 1.77 1.76 1.70 1.60 1.58 1.67 1.69 1.62 1.64 1.68 1.71 1.71 1.63 1.54 1.51 1.57 1.63 1.65 1.74 1.83 1.90 1.97 2.05 2.16 2.19 2.19 2.13
2.04 2.05 2.06 2.04 2.02 1.97 1.95 1.91 1.95 1.95 1.93 1.92 1.94 1.94 1.93 1.96 1.99 2.03 2.07 2.13 2.16 2.16 2.16 2.21 2.25 2.29 2.28 2.19 2.06 1.85 1.80 1.82 1.80 1.77 1.72 1.70 1.69 1.70 1.69 1.68 1.73 1.75 1.72 1.72 1.76 1.78 1.84 1.84 1.86 1.91 1.94 1.88 1.95 1.97 1.92 1.91 1.78 1.65 1.75 1.66 1.59 1.65 1.56 1.62 1.63 1.61 1.60 1.67 1.68 1.69 1.63 1.52 1.45 1.46 1.62 1.66 1.66 1.75 1.82 1.87 1.95 2.08 2.16 2.14 2.19
2.02 2.04 2.04 2.02 2.00 1.99 1.97 1.96 2.00 2.00 2.01 2.03 2.02 2.02 2.05 2.04 2.00 2.04 2.08 2.09 2.09 2.08 2.10 2.19 2.24 2.23 2.15 2.01 1.80 1.80 1.82 1.78 1.75 1.74 1.71 1.70 1.67 1.66 1.67 1.67 1.69 1.73 1.75 1.79 1.78 1.76 1.71 1.73 1.72 1.69 1.70 1.69 1.64 1.78 1.81 1.81 1.65 1.52 1.41 1.38 1.43 1.49 1.56 1.56 1.59 1.60 1.62 1.56 1.56 1.58 1.58 1.50 1.42 1.40 1.52 1.65 1.67 1.71 1.76 1.84 1.85 1.99 2.06 2.15 2.07
2.00 2.02 2.07 2.08 2.03 1.99 1.99 2.03 2.02 2.02 2.06 2.05 2.02 1.98 2.01 2.06 2.06 2.04 2.03 2.04 2.15 2.16 2.17 2.16 2.13 2.05 1.95 1.77 1.77 1.82 1.77 1.74 1.71 1.71 1.69 1.69 1.69 1.67 1.66 1.69 1.68 1.71 1.69 1.68 1.71 1.70 1.70 1.67 1.71 1.66 1.59 1.64 1.63 1.69 1.72 1.72 1.56 1.52 1.51 1.37 1.33 1.20 1.48 1.48 1.51 1.57 1.55 1.52 1.55 1.56 1.50 1.44 1.36 1.35 1.40 1.54 1.61 1.64 1.70 1.75 1.88 1.91 1.89 2.05 2.10
1.84 1.90 1.96 1.97 1.97 1.95 1.97 1.99 2.00 2.05 2.07 2.11 2.11 2.15 2.13 2.13 2.13 2.10 2.06 2.03 1.99 2.05 2.05 2.04 1.98 1.87 1.70 1.73 1.79 1.75 1.74 1.68 1.68 1.68 1.68 1.68 1.66 1.64 1.62 1.61 1.61 1.66 1.67 1.64 1.68 1.65 1.63 1.65 1.66 1.66 1.63 1.45 1.40 1.46 1.53 1.52 1.47 1.37 1.27 1.23 1.27 1.20 1.10 1.29 1.27 1.40 1.49 1.51 1.58 1.49 1.45 1.33 1.36 1.33 1.35 1.38 1.49 1.55 1.60 1.70 1.79 1.80 1.85 1.96 1.98
1.74 1.78 1.86 1.86 1.86 1.85 1.89 1.94 1.98 2.03 2.06 2.08 2.13 2.16 2.11 2.04 2.02 1.99 2.00 1.95 1.95 1.93 1.85 1.80 1.75 1.64 1.64 1.68 1.67 1.72 1.66 1.63 1.65 1.65 1.63 1.59 1.59 1.60 1.57 1.52 1.50 1.52 1.52 1.49 1.46 1.46 1.53 1.57 1.52 1.46 1.44 1.39 1.35 1.33 1.36 1.37 1.29 1.31 1.18 1.11 1.12 1.11 1.15 1.21 1.21 1.24 1.40 1.40 1.47 1.56 1.42 1.31 1.28 1.29 1.26 1.31 1.45 1.51 1.54 1.60 1.68 1.77 1.83 1.91 1.97
1.69 1.79 1.81 1.81 1.81 1.81 1.81 1.87 1.93 1.96 1.99 2.03 2.07 2.00 1.86 1.79 1.75 1.73 1.73 1.72 1.70 1.67 1.59 1.52 1.51 1.52 1.54 1.64 1.67 1.64 1.62 1.62 1.63 1.62 1.60 1.58 1.55 1.56 1.55 1.50 1.45 1.42 1.39 1.34 1.30 1.31 1.33 1.34 1.36 1.34 1.30 1.31 1.24 1.21 1.17 1.25 1.25 1.23 1.25 1.26 1.23 1.07 1.02 1.07 0.98 0.95 1.14 1.19 1.29 1.39 1.36 1.29 1.22 1.22 1.18 1.23 1.31 1.41 1.47 1.50 1.56 1.64 1.81 1.84 1.88
1.67 1.72 1.76 1.79 1.79 1.78 1.77 1.81 1.89 1.90 1.91 1.87 1.86 1.84 1.82 1.81 1.77 1.73 1.72 1.67 1.60 1.57 1.58 1.59 1.58 1.56 1.60 1.57 1.57 1.60 1.63 1.60 1.58 1.59 1.59 1.59 1.59 1.59 1.58 1.52 1.42 1.35 1.26 1.20 1.16 1.17 1.22 1.26 1.29 1.25 1.20 1.15 1.11 1.01 0.98 0.98 1.05 1.05 1.00 1.01 0.96 0.94 0.90 0.79 0.71 0.71 0.73 0.97 1.02 1.09 1.16 1.23 1.13 1.13 1.12 1.17 1.23 1.35 1.41 1.46 1.50 1.59 1.64 1.87 1.88
1.66 1.73 1.74 1.78 1.78 1.77 1.75 1.79 1.86 1.87 1.76 1.79 1.79 1.81 1.75 1.77 1.72 1.66 1.66 1.63 1.59 1.51 1.55 1.57 1.57 1.56 1.54 1.53 1.52 1.56 1.58 1.59 1.60 1.60 1.62 1.63 1.63 1.64 1.63 1.51 1.35 1.25 1.16 1.12 1.10 1.12 1.12 1.11 1.08 1.04 1.00 0.95 0.88 0.77 0.73 0.69 0.66 0.71 0.73 0.70 0.72 0.81 0.78 0.79 0.82 0.62 0.58 0.63 0.85 1.10 1.12 1.07 1.04 1.00 1.07 1.14 1.18 1.29 1.31 1.44 1.46 1.54 1.54 1.63 1.76
1.68 1.70 1.72 1.78 1.80 1.81 1.79 1.77 1.71 1.76 1.83 1.79 1.77 1.77 1.72 1.67 1.66 1.67 1.59 1.62 1.58 1.55 1.58 1.55 1.50 1.53 1.49 1.54 1.58 1.58 1.58 1.61 1.62 1.60 1.61 1.64 1.65 1.67 1.65 1.48 1.32 1.27 1.24 1.19 1.15 1.11 1.06 1.04 1.03 1.01 0.99 0.96 0.91 0.82 0.72 0.64 0.61 0.57 0.58 0.53 0.51 0.53 0.61 0.65 0.64 0.67 0.62 0.64 0.67 0.80 0.84 0.94 0.95 1.04 1.03 1.06 1.14 1.25 1.32 1.37 1.43 1.47 1.53 1.58 1.73
1.63 1.65 1.69 1.74 1.76 1.76 1.76 1.79 1.79 1.61 1.59 1.71 1.75 1.78 1.75 1.73 1.69 1.63 1.59 1.55 1.54 1.54 1.52 1.45 1.48 1.52 1.48 1.52 1.54 1.55 1.57 1.59 1.60 1.60 1.59 1.60 1.62 1.63 1.54 1.40 1.36 1.32 1.29 1.23 1.17 1.11 1.05 0.99 0.94 0.87 0.85 0.85 0.85 0.79 0.68 0.64 0.61 0.55 0.52 0.45 0.45 0.46 0.47 0.56 0.57 0.57 0.67 0.68 0.59 0.66 0.78 0.76 0.69 0.80 0.89 0.90 0.88 1.04 1.19 1.34 1.37 1.41 1.59 1.63 1.56
1.63 1.63 1.63 1.66 1.72 1.74 1.74 1.76 1.74 1.84 1.61 1.50 1.47 1.54 1.63 1.70 1.68 1.66 1.61 1.52 1.48 1.44 1.42 1.44 1.45 1.48 1.47 1.47 1.50 1.52 1.58 1.60 1.64 1.61 1.58 1.58 1.55 1.51 1.45 1.40 1.37 1.35 1.30 1.25 1.17 1.09 0.99 0.88 0.81 0.81 0.77 0.73 0.72 0.69 0.66 0.60 0.58 0.52 0.49 0.46 0.46 0.47 0.42 0.46 0.47 0.45 0.51 0.57 0.55 0.66 0.70 0.72 0.60 0.67 0.90 0.83 0.70 0.76 0.97 1.13 1.32 1.36 1.40 1.44 1.52
Wind_Speed
19 19 19 19 19 18 18 17 17 17 16 16 15 14 14 13 13 13 13 12 11 11 10 9 8 7 6 5 5 4 4 3 3 2 1 1 2 2 3 3 3 3 4 4 4 5 5 6 6 7 7 8 8 9 9 10 10 10 10 11 11 11 11 11 11 11 11 12 11 11 11 11 10 10 9 8 8 7 7 6 6 6 7 6 6
19 19 19 19 19 18 18 17 17 16 16 15 14 14 13 13 12 12 12 11 11 10 9 8 7 7 6 5 4 4 3 3 2 1 1 2 2 3 3 3 3 3 4 4 5 5 6 6 7 8 8 9 9 10 11 11 11 11 11 11 11 11 11 11 11 11 12 12 12 12 11 10 9 9 9 8 8 7 7 6 6 6 6 6 6
18 18 19 19 18 18 17 17 16 16 15 15 14 13 13 12 12 11 11 10 10 9 8 7 7 6 5 4 4 3 3 2 1 1 2 2 3 3 3 3 4 4 4 5 5 6 6 7 7 8 9 9 10 11 11 11 11 12 12 12 12 12 11 11 11 11 12 12 12 12 11 10 9 9 9 9 8 8 8 7 6 6 6 6 6
18 18 18 19 18 17 17 16 16 15 15 14 13 13 12 12 11 10 10 9 8 8 7 6 6 5 4 3 3 3 2 1 1 1 2 2 3 3 3 4 4 4 5 5 6 6 7 7 8 9 9 10 10 11 11 12 12 12 13 13 13 12 12 12 12 11 11 11 11 12 11 11 10 9 9 9 9 8 8 8 7 6 6 6 5
17 17 17 18 17 17 16 15 15 15 14 13 13 12 11 11 10 10 9 8 7 7 6 6 5 4 4 3 3 2 1 1 1 2 2 3 3 3 4 4 4 5 5 5 6 7 7 8 8 9 10 10 11 11 12 12 13 13 13 13 13 13 12 12 12 11 11 10 10 11 11 11 10 9 9 9 9 8 9 9 7 6 6 6 5
17 17 17 17 16 16 15 15 15 14 14 13 12 11 11 10 9 9 8 7 7 6 6 5 4 4 3 2 2 1 0 1 1 2 3 3 3 3 4 4 5 5 6 6 7 7 8 8 9 9 10 10 11 12 13 13 13 13 14 14 14 13 12 12 12 12 11 11 10 10 10 10 10 9 9 10 9 9 9 8 7 7 7 6 5
17 16 16 16 16 16 15 14 14 13 13 12 11 11 10 10 9 8 7 7 6 6 5 5 4 3 2 2 1 0 0 1 2 2 3 3 3 4 4 5 5 6 6 7 7 8 8 9 9 10 10 11 12 13 13 14 14 14 15 15 14 13 12 11 11 12 11 11 10 10 10 10 10 9 10 10 10 9 9 8 7 7 7 6 5
16 16 15 15 15 15 14 14 13 12 12 11 11 10 10 9 9 8 7 7 6 6 5 4 3 2 2 1 0 0 1 1 2 3 3 3 4 4 5 5 6 7 7 7 8 8 8 9 9 10 11 11 12 13 14 14 15 15 15 15 15 14 12 11 11 11 11 11 10 10 10 9 9 9 9 10 10 9 8 8 7 7 7 5 5
15 15 14 14 14 14 14 13 12 12 11 11 10 10 9 9 8 8 7 7 6 5 4 4 3 2 1 1 1 1 1 2 2 3 3 4 4 5 5 6 6 7 7 8 8 8 8 9 9 10 11 12 13 14 14 15 15 15 15 15 15 14 13 12 11 11 11 11 11 11 11 10 9 8 8 9 9 8 8 8 8 8 7 6 5
15 14 14 13 13 14 13 12 12 11 11 10 10 10 9 9 8 7 7 6 6 5 4 3 3 2 2 2 2 2 2 3 3 3 4 4 5 5 6 6 7 7 8 8 8 8 9 9 10 11 12 12 13 14 15 15 15 15 16 16 15 15 14 12 11 11 10 11 11 11 11 11 9 8 8 8 8 8 8 8 8 7 7 6 5
14 14 13 12 12 13 12 12 11 11 10 10 10 10 9 8 8 7 6 6 5 4 4 4 3 3 3 3 3 3 3 3 4 4 4 5 5 6 6 7 7 8 8 8 9 9 9 9 10 11 12 13 14 14 15 15 15 15 16 16 15 15 14 13 12 11 10 10 10 11 11 11 9 8 8 8 8 8 8 9 8 8 7 6 6
13 13 12 12 12 12 12 11 11 11 10 10 10 9 9 8 7 7 6 6 5 5 4 4 4 3 3 4 4 4 4 4 4 5 5 6 6 6 7 7 8 8 8 9 9 9 9 10 11 12 13 13 14 14 14 15 15 15 15 15 15 15 14 13 12 11 10 10 10 11 11 10 9 9 8 8 9 8 8 9 9 8 8 7 6
12 12 11 12 12 12 11 11 11 10 10 10 9 9 8 8 7 7 6 6 5 5 5 4 4 4 4 5 4 5 5 5 5 6 6 6 7 7 8 8 9 9 9 9 9 9 10 10 11 12 13 13 14 14 14 14 15 15 15 15 15 14 14 13 12 12 11 10 10 10 10 9 9 9 9 9 9 9 9 9 9 9 8 7 7
11 11 11 11 11 11 11 10 10 10 10 9 9 9 8 8 7 7 6 6 6 6 5 5 5 5 5 5 5 5 5 6 6 6 7 7 7 8 8 9 9 9 9 9 10 10 10 11 11 12 13 13 14 14 14 14 15 15 15 15 15 14 14 13 12 11 11 10 10 10 9 8 9 9 9 10 10 9 9 9 9 9 9 8 8
10 10 10 10 10 10 10 9 9 9 9 9 9 8 8 8 7 7 7 7 6 6 6 6 6 6 6 6 6 6 6 7 7 7 8 8 8 9 9 9 9 10 10 10 10 10 10 11 12 13 13 13 14 14 14 14 15 15 15 15 15 15 14 13 12 12 11 11 10 9 9 9 9 9 9 10 11 10 10 10 10 10 9 9 9
10 10 10 9 9 9 9 9 9 8 8 8 8 8 7 7 7 7 7 7 7 6 6 7 7 7 7 7 7 7 7 8 8 8 9 9 9 9 10 10 10 10 10 10 10 11 11 12 12 13 13 14 14 14 14 15 15 15 15 15 15 15 14 13 12 12 11 11 10 9 9 9 9 10 10 11 11 11 11 11 11 11 10 9 9
9 9 9 9 9 9 9 8 8 8 8 8 8 8 7 7 7 7 7 7 7 7 7 7 7 7 8 8 8 8 8 9 9 9 10 10 10 10 10 10 10 11 11 11 11 11 12 12 13 13 13 14 14 14 15 15 15 15 15 15 15 15 14 14 13 12 11 11 10 9 9 9 9 10 11 11 11 12 12 12 12 11 11 10 10
8 8 8 8 9 8 8 8 8 8 8 8 8 8 8 7 7 7 7 7 7 7 7 8 8 8 8 8 9 9 9 10 10 10 11 11 11 11 11 11 11 11 11 12 12 12 13 13 13 14 14 14 14 15 15 15 15 15 15 15 15 15 15 14 13 12 11 11 10 10 9 8 9 10 10 11 11 12 13 13 13 12 12 11 11
7 8 8 8 8 8 7 7 7 8 8 7 7 8 8 8 8 8 8 7 8 8 8 8 8 9 9 9 9 10 10 11 11 11 12 12 11 11 11 12 12 12 12 13 13 13 13 14 14 15 15 15 15 15 15 15 15 15 15 16 16 15 15 14 12 12 12 11 10 10 9 8 8 9 10 11 11 12 13 14 14 13 13 13 12
7 7 7 7 7 7 7 7 7 7 7 7 7 7 7 8 8 8 8 8 8 8 9 9 9 9 9 10 10 11 11 11 12 11 12 12 12 12 12 12 13 13 13 13 14 14 14 15 15 15 15 15 15 16 16 16 16 16 16 16 16 16 15 13 12 12 12 11 10 10 9 8 8 9 10 11 11 12 13 14 14 14 14 14 13
6 6 7 7 7 7 7 7 7 7 7 7 7 7 7 8 8 8 8 8 9 9 9 9 9 10 10 10 11 11 11 11 11 12 12 12 12 13 13 13 13 14 14 14 15 15 15 16 16 16 16 16 16 16 16 16 16 16 15 15 16 15 14 13 13 13 12 11 11 10 9 9 8 9 10 11 11 12 13 14 15 15 15 15 14
6 6 6 7 7 7 7 7 7 7 7 7 7 7 7 7 8 8 8 9 9 9 9 9 10 10 10 10 11 11 11 11 12 12 12 13 13 14 14 15 15 15 15 15 16 16 16 16 16 17 17 17 17 17 16 16 16 16 16 15 15 15 15 14 14 13 12 11 11 10 9 9 9 9 10 11 11 12 13 14 15 16 16 16 15
6 6 6 7 7 7 7 8 8 7 7 7 7 7 7 8 8 8 9 9 9 9 9 10 10 10 10 10 11 11 11 12 13 13 14 14 15 15 16 16 16 16 16 16 17 17 17 17 18 18 18 18 17 17 16 16 16 16 16 15 15 15 15 15 14 13 12 12 11 10 9 10 10 10 10 10 11 12 12 13 15 16 17 17 17
6 6 6 7 7 7 7 8 8 8 8 7 7 7 7 8 8 8 8 9 9 9 9 9 10 10 10 11 11 11 12 12 13 13 14 14 15 15 16 16 16 16 16 17 17 18 18 18 18 18 18 18 17 17 16 16 15 15 15 15 15 15 15 15 14 13 13 12 11 10 10 10 10 10 10 10 11 12 12 13 15 16 18 18 18
5 6 6 6 7 7 7 7 8 8 8 7 7 7 7 8 8 8 8 9 9 9 9 9 10 10 10 11 11 12 12 13 13 13 14 14 15 15 16 16 17 17 17 18 18 18 18 19 19 19 19 19 18 17 17 16 16 16 16 15 15 15 15 15 14 13 13 12 11 10 10 10 10 10 10 10 11 12 13 13 15 17 18 19 19
5 5 6 6 6 7 7 7 7 8 8 7 7 7 8 8 8 8 9 9 9 9 9 10 10 10 11 11 11 12 13 13 13 14 14 15 15 16 16 17 17 18 18 18 19 19 19 19 20 20 20 19 19 19 18 16 16 16 16 16 16 15 15 14 13 13 12 12 11 10 10 10 10 10 10 11 11 12 13 14 15 17 19 20 20
5 5 6 6 6 7 7 7 7 7 8 8 8 8 8 8 8 9 9 9 9 9 9 10 10 10 11 11 11 12 13 13 13 14 15 15 16 17 18 18 19 19 19 19 19 19 19 20 21 20 20 19 19 20 19 17 16 16 16 16 16 15 15 14 13 12 12 11 11 10 9 10 10 10 10 11 11 12 13 14 15 16 18 20 21
5 5 5 6 6 6 7 7 7 7 7 8 8 8 8 8 9 9 9 9 9 9 9 9 10 10 10 11 11 12 13 13 14 15 15 16 17 18 19 19 19 20 20 20 20 20 21 21 21 21 21 20 20 21 20 18 16 16 15 16 16 16 14 13 13 12 11 11 10 10 9 9 10 10 10 11 11 12 13 14 15 16 18 20 21
5 5 5 5 6 6 7 7 7 7 7 8 8 8 8 8 8 8 9 8 8 9 9 10 10 10 10 11 11 12 13 14 15 15 16 17 18 19 19 20 20 21 21 20 20 21 22 22 22 22 22 22 21 22 21 18 17 17 16 16 16 15 14 13 12 11 11 10 10 10 9 9 10 10 11 11 11 12 13 14 16 17 18 20 21
5 5 5 5 6 6 7 7 7 7 7 8 8 8 8 8 8 8 8 8 9 9 9 10 10 10 10 11 12 13 14 15 16 16 17 18 19 19 20 20 21 21 21 20 20 21 22 22 23 23 22 22 22 22 21 18 17 17 16 17 16 15 13 12 11 11 10 10 9 9 9 10 10 11 11 12 12 13 13 14 16 17 18 19 22
6 6 6 6 6 7 7 7 7 7 8 8 8 8 8 8 8 8 8 9 9 9 10 10 10 10 11 12 13 14 15 16 17 17 18 19 20 20 20 20 20 21 21 20 21 22 23 23 24 23 23 22 22 21 20 19 17 16 17 16 15 14 12 11 11 11 10 9 9 9 9 9 10 10 11 12 12 13 13 14 15 17 18 19 22
7 7 7 7 7 7 7 7 8 8 8 8 8 8 8 8 8 8 9 9 9 9 10 10 11 11 12 13 14 15 16 17 17 18 19 20 20 20 20 20 20 21 21 21 23 24 24 24 24 24 23 22 20 20 20 19 17 16 17 15 14 12 11 11 11 10 9 9 9 9 9 10 10 10 11 12 12 12 13 14 15 16 17 19 22
7 7 8 8 8 8 8 8 8 8 8 8 8 8 8 8 9 9 9 9 10 10 10 11 11 12 13 14 15 15 16 17 18 19 19 20 20 20 20 20 20 21 21 22 23 24 23 23 23 23 22 20 19 19 18 17 16 16 16 14 12 11 11 10 10 9 8 9 9 9 9 10 10 10 11 11 12 12 12 13 14 16 17 19 22
8 8 8 8 8 7 7 8 8 8 9 9 9 9 9 9 9 10 10 10 10 11 11 12 12 13 14 14 15 16 17 18 18 19 19 19 19 20 21 21 21 21 22 22 22 22 22 23 22 21 20 19 18 18 16 14 14 15 14 12 11 10 10 9 9 8 8 8 8 8 9 10 10 10 10 11 11 11 11 11 13 15 16 19 21
9 9 9 9 8 8 8 8 9 9 9 10 10 10 10 10 10 10 10 11 11 12 12 13 13 14 14 14 15 16 17 17 18 19 19 19 20 20 21 21 21 22 22 21 21 21 22 22 21 20 19 18 17 16 14 12 12 12 11 10 10 10 9 9 8 7 7 7 8 8 9 9 10 10 10 11 10 10 10 10 11 13 15 17 20
10 10 10 10 10 10 10 10 10 10 10 10 11 11 11 11 11 11 11 12 12 12 13 13 14 14 14 15 15 16 17 17 18 18 19 19 20 20 20 20 21 21 21 20 20 21 21 20 19 18 17 16 15 13 11 10 10 10 9 9 9 9 8 7 7 7 7 7 7 8 9 9 10 10 10 10 9 8 8 8 9 11 14 16 18
10 10 11 11 11 11 11 11 11 11 11 11 11 11 11 11 12 12 12 12 13 13 13 13 14 14 14 15 16 17 17 17 17 18 19 19 19 19 19 20 20 20 20 20 20 20 20 19 17 16 15 13 10 9 8 8 8 8 8 8 8 8 7 6 6 6 7 7 7 8 9 9 9 9 9 9 8 8 7 7 7 9 12 14 16
11 11 11 11 11 12 11 11 11 11 11 11 11 11 11 12 12 12 13 13 13 13 13 13 14 14 14 15 17 17 17 17 17 17 17 17 17 18 18 19 19 19 19 19 19 19 18 17 16 13 10 7 6 6 6 7 7 7 7 7 7 7 6 6 6 7 7 7 8 8 8 9 9 8 8 9 8 7 7 6 5 7 11 13 15
11 11 11 11 11 11 11 11 11 11 11 11 11 11 12 12 12 13 13 13 13 13 13 13 14 14 14 15 16 16 16 16 16 16 16 16 16 17 17 17 17 17 18 18 18 17 16 14 12 9 5 3 3 4 4 5 5 6 7 7 6 6 6 6 7 7 8 8 8 8 8 9 9 8 8 8 8 7 6 5 4 5 9 12 15
9 9 10 10 10 10 10 10 10 10 11 11 11 11 11 12 12 13 13 13 13 13 13 14 14 14 14 15 14 14 14 14 14 14 15 15 15 15 15 16 16 17 16 16 17 16 14 12 9 7 5 4 4 3 3 4 5 6 6 6 6 6 6 6 7 7 8 8 8 8 9 9 9 8 8 8 8 7 6 5 5 4 7 11 14
7 7 8 8 8 8 8 8 9 9 10 10 10 10 11 11 12 12 13 13 13 13 14 14 13 13 13 13 12 12 12 13 13 13 13 13 13 14 14 15 16 16 15 15 15 15 13 10 6 5 5 5 4 3 3 5 6 6 6 5 5 6 6 6 7 8 8 8 8 8 9 9 9 9 8 8 7 7 6 6 5 4 6 10 13
6 6 6 6 7 7 7 7 7 8 8 9 9 9 9 10 10 10 11 11 12 12 12 11 11 11 11 11 11 11 11 12 12 12 12 12 13 13 14 15 15 15 14 14 14 13 13 10 7 5 5 4 4 4 5 6 6 6 6 5 5 5 6 6 7 7 8 8 8 8 8 8 8 8 8 7 7 7 6 6 5 5 5 8 12
5 5 5 5 5 5 6 6 7 7 7 7 8 8 8 8 8 9 9 9 9 9 8 8 9 9 9 9 9 10 10 11 11 11 11 12 12 13 13 14 14 14 14 13 13 12 12 10 8 6 5 5 5 5 5 6 6 6 6 6 6 6 6 6 7 8 8 9 8 8 8 8 8 8 8 7 7 6 6 6 5 5 5 7 10
4 4 5 5 5 5 5 5 6 6 7 7 7 7 7 8 8 8 8 7 7 7 7 7 7 8 8 8 9 9 9 10 10 10 11 11 12 12 12 13 13 13 13 13 13 12 11 10 9 7 7 6 5 6 6 6 7 7 7 7 7 6 6 7 8 9 9 9 8 8 9 8 8 8 8 8 7 6 6 6 5 5 6 7 9
3 4 4 4 4 4 5 5 5 6 6 6 6 7 7 8 7 7 7 6 6 6 6 6 6 7 7 7 8 8 9 9 10 10 10 11 11 11 12 12 12 12 12 12 12 11 11 10 9 8 8 7 7 7 7 7 7 7 8 8 8 8 8 9 10 9 9 9 9 9 9 9 8 8 8 8 7 7 6 6 6 6 6 7 9
3 3 3 4 4 4 4 5 5 6 6 7 6 6 6 6 6 6 5 5 5 5 5 5 5 6 6 6 7 7 8 9 9 10 10 10 11 11 11 11 11 12 12 12 12 11 11 10 10 9 8 8 8 8 8 7 7 8 8 8 8 9 10 10 11 10 9 9 9 9 9 9 8 8 8 7 7 7 6 6 6 6 6 7 8
3 3 3 4 4 4 4 4 5 5 5 6 5 5 4 4 4 4 4 4 4 4 4 4 4 5 5 5 6 7 8 8 9 9 9 10 10 10 11 11 11 12 12 12 12 11 11 11 10 10 9 9 8 8 9 8 8 8 8 9 9 9 10 10 10 10 10 10 9 9 9 9 8 8 8 8 7 7 6 6 6 6 6 7 8
4 4 3 4 4 4 4 4 4 4 4 4 4 4 3 4 4 3 3 3 3 3 3 3 4 4 4 5 6 7 7 8 8 9 9 9 9 10 10 11 11 12 12 11 12 12 11 11 11 11 10 9 9 9 9 9 9 9 9 10 10 10 10 10 10 10 11 10 10 9 8 9 9 8 8 8 7 7 7 7 7 7 7 7 8
4 4 4 4 4 4 4 3 3 3 3 4 4 3 3 3 3 3 3 2 2 2 3 3 4 4 4 5 6 6 7 7 8 8 9 9 9 10 10 11 11 11 11 12 12 12 12 12 12 11 11 10 10 9 9 9 10 10 10 10 10 10 10 10 10 10 10 10 10 10 9 10 10 9 9 9 8 8 7 7 8 8 7 8 8
5 4 4 4 4 3 3 3 2 2 2 3 3 3 3 3 3 2 2 2 2 2 3 3 3 4 4 5 6 6 6 7 7 8 8 9 10 10 11 11 11 11 12 12 13 13 13 12 12 12 11 10 10 10 10 10 10 10 10 10 10 10 10 10 10 10 10 10 11 11 10 10 11 10 9 9 9 9 9 9 9 9 9 9 9
5 5 4 4 4 4 3 3 2 2 2 2 2 2 3 3 2 2 2 2 2 3 3 3 4 4 4 5 6 6 6 7 7 8 9 10 10 11 11 11 11 12 12 13 13 14 13 13 12 12 11 11 10 10 10 10 10 10 10 10 10 10 10 11 11 11 11 11 11 12 11 11 12 11 10 10 10 10 10 10 10 10 10 10 10
Wind_Direction
142 144 144 145 144 144 143 143 143 143 143 142 141 139 138 136 135 135 135 134 133 132 131 131 132 133 131 128 124 122 118 115 109 91 61 25 360 351 350 349 349 347 347 343 335 333 333 332 331 327 325 321 319 321 322 319 316 312 310 308 303 299 293 287 284 280 278 276 275 276 275 272 269 265 262 259 254 252 250 255 262 267 276 282 291
142 144 146 147 145 145 144 144 144 144 145 144 144 141 140 139 138 136 135 134 134 133 133 133 134 134 130 126 123 123 121 115 98 62 26 3 354 351 349 348 348 347 347 341 333 333 334 335 333 328 326 326 326 327 324 320 318 315 313 310 305 300 295 290 286 284 280 278 274 271 271 270 267 263 257 253 251 251 247 253 261 266 278 283 289
143 144 146 148 147 147 146 146 146 146 146 146 146 144 143 142 140 138 138 137 137 137 137 137 137 135 131 128 126 126 123 108 73 31 9 359 355 351 345 343 341 342 343 337 333 336 337 336 334 329 329 330 330 329 327 325 321 318 315 311 307 299 293 291 287 286 283 280 274 268 268 267 264 260 255 251 249 249 248 253 260 265 276 283 287
143 144 146 148 149 149 149 149 148 148 148 148 147 146 145 144 142 142 142 142 142 142 141 142 141 139 136 133 130 128 120 92 38 14 2 358 354 347 340 338 336 337 338 336 337 340 339 336 334 332 333 334 333 332 330 329 325 322 318 313 310 303 295 291 287 285 283 281 275 268 268 266 262 259 256 251 248 248 248 251 258 265 272 281 285
144 145 147 149 150 151 152 153 152 152 152 150 149 149 148 147 146 146 147 146 146 146 147 148 146 143 140 137 132 129 115 51 12 4 355 354 351 342 338 337 336 336 337 338 342 342 339 338 336 335 337 337 336 334 331 329 328 324 321 316 312 308 300 292 287 284 282 280 276 271 268 265 261 259 257 250 247 247 247 251 254 262 270 278 282
144 144 147 149 151 153 155 156 156 156 155 153 153 152 151 151 151 150 150 150 152 152 152 152 149 145 144 141 137 136 94 5 358 355 350 350 345 339 336 336 336 336 338 342 343 340 338 339 337 337 338 337 336 335 332 330 329 326 323 319 314 311 306 296 288 283 281 279 275 273 268 265 261 258 257 250 249 249 247 250 248 256 269 274 277
145 145 147 150 152 155 157 158 159 159 157 156 156 156 155 154 155 155 155 155 156 156 156 156 152 149 150 151 151 141 354 347 352 349 345 343 338 334 333 332 334 336 339 341 338 336 336 337 338 338 337 336 336 335 334 331 328 326 324 321 318 315 312 303 291 283 279 277 274 271 267 265 261 258 257 250 250 250 247 249 246 255 267 269 268
146 147 148 150 153 157 158 160 161 161 159 158 159 158 157 157 159 160 161 161 160 161 162 163 162 164 171 178 208 319 332 335 342 340 339 336 332 330 329 328 330 334 336 335 333 334 335 335 336 336 336 336 336 335 334 332 329 327 325 323 321 318 315 309 298 288 281 277 274 269 264 264 261 257 258 250 248 248 245 246 245 252 260 261 260
148 149 150 151 154 158 160 162 162 162 161 161 161 160 160 161 163 166 167 167 167 170 173 177 183 191 207 234 271 299 314 324 331 330 332 330 327 325 324 325 329 331 330 330 330 332 334 334 334 334 335 335 334 334 332 332 330 328 326 325 323 320 317 312 302 296 286 277 273 270 264 262 260 257 255 249 245 244 243 240 239 247 250 252 250
150 151 152 153 155 158 161 162 163 164 164 164 164 163 165 166 169 173 174 177 180 184 190 197 206 217 237 263 279 290 301 311 318 321 324 324 323 321 320 322 325 326 326 328 329 331 333 334 333 332 333 333 333 333 332 332 332 330 328 327 324 321 319 315 306 300 291 279 275 273 266 260 258 256 251 248 246 241 240 236 236 243 244 245 241
151 154 155 155 156 159 161 162 164 165 166 168 169 171 173 175 178 182 184 189 196 201 208 216 225 237 253 270 278 284 291 300 308 313 316 317 318 317 318 319 322 323 324 324 326 327 330 332 332 332 333 333 333 333 333 334 334 333 331 329 326 324 323 320 313 307 297 285 278 273 265 258 257 255 250 249 248 241 239 235 235 239 240 242 236
150 153 156 157 159 161 163 164 167 168 170 173 175 179 182 185 189 193 199 204 211 216 224 231 240 250 261 270 275 280 287 295 303 307 310 312 314 314 315 317 318 321 321 321 321 323 326 329 330 331 332 333 333 334 334 334 336 336 334 332 329 327 326 324 321 315 305 294 282 273 265 259 259 256 251 250 247 240 237 235 234 235 236 238 231
148 151 156 159 162 164 167 168 171 173 175 178 181 186 189 194 199 205 211 217 223 228 235 241 248 257 264 269 275 280 286 294 299 302 305 308 310 311 313 315 316 317 318 317 318 320 323 326 328 328 330 332 333 335 335 334 335 336 336 336 333 330 328 325 323 320 313 305 290 276 268 265 263 256 250 248 244 239 237 236 233 232 233 233 227
149 150 154 159 164 167 169 171 174 178 181 184 187 191 196 202 208 213 219 226 231 236 241 247 253 259 265 269 275 280 286 291 295 298 300 303 305 308 311 312 313 314 314 314 315 318 320 322 324 326 328 331 333 334 335 335 334 334 335 335 334 332 330 327 323 320 317 312 301 285 275 272 267 258 251 247 243 239 237 235 232 229 230 230 224
151 153 156 159 164 168 172 175 178 182 185 188 191 196 202 208 214 219 225 231 236 241 247 253 257 262 267 270 275 279 284 287 291 294 296 299 302 305 307 309 310 310 310 312 314 315 317 318 321 323 327 330 332 332 333 333 333 333 332 332 333 331 331 328 323 320 317 314 309 297 284 275 268 260 253 248 243 240 236 233 231 229 228 227 223
155 157 160 162 165 169 174 178 182 185 188 192 196 201 206 213 220 225 230 235 241 247 253 257 261 265 268 271 275 278 281 285 289 292 295 298 300 302 304 306 306 307 308 310 311 312 313 314 317 320 323 327 329 331 331 331 331 331 331 331 330 330 329 327 324 320 316 314 311 304 291 279 270 262 255 249 243 240 236 232 229 228 227 225 222
162 164 166 168 169 172 178 183 187 190 193 197 201 206 210 217 224 230 236 241 247 252 256 260 263 266 269 272 275 278 282 285 289 291 295 297 298 300 300 302 303 304 306 307 308 309 310 310 312 316 319 321 325 328 329 329 329 330 330 329 329 328 327 325 322 318 315 314 311 306 295 282 271 261 256 250 244 239 236 232 228 226 226 224 221
166 170 173 175 177 179 184 188 191 195 199 203 208 212 217 222 228 234 240 246 251 256 259 262 264 267 270 274 277 280 283 285 288 291 294 295 297 297 298 299 301 303 304 305 305 306 307 308 309 313 315 317 320 324 326 326 326 327 327 327 328 326 325 323 321 319 316 314 311 305 297 285 272 262 256 251 244 239 237 233 229 226 225 225 221
170 174 178 181 185 186 190 192 195 199 204 210 215 220 226 230 235 239 245 250 255 258 261 263 266 269 271 275 278 281 283 285 288 291 292 294 295 296 296 297 299 301 301 302 301 303 304 306 307 309 312 313 316 320 322 322 323 324 324 325 327 326 323 321 322 321 318 316 311 305 299 290 275 265 258 251 244 239 237 233 229 227 225 224 222
177 180 184 187 190 192 195 198 201 205 209 216 222 228 234 237 242 245 249 253 257 260 263 266 268 271 273 276 280 282 284 286 288 291 292 293 294 295 295 296 298 299 300 300 300 301 303 304 306 307 309 310 313 316 318 319 320 321 321 323 324 324 323 321 323 323 318 316 312 305 299 293 281 269 260 252 245 239 236 231 229 227 224 222 220
185 189 192 194 197 199 202 205 209 214 218 224 230 236 240 244 247 249 252 255 259 262 265 268 271 273 276 278 280 282 284 286 289 291 292 293 294 294 295 295 297 298 298 299 300 300 301 302 303 305 307 308 309 312 314 315 317 318 319 319 321 322 321 319 320 320 317 315 311 306 298 292 284 272 262 254 247 240 235 231 229 227 224 221 219
189 194 200 201 204 206 210 214 217 220 226 232 238 243 246 249 251 252 255 259 262 265 268 270 273 275 277 279 280 282 285 288 290 292 294 294 295 295 295 296 296 296 297 298 298 298 299 299 300 302 303 304 306 308 311 313 314 315 316 316 318 320 320 317 316 316 314 311 308 305 298 290 283 274 265 258 250 243 237 233 230 227 224 221 219
193 197 203 206 210 213 216 220 223 225 229 235 242 247 250 252 254 256 258 261 265 267 269 271 273 275 277 279 281 285 287 290 291 292 294 295 295 295 296 297 296 296 296 297 297 296 297 297 298 299 300 301 303 305 308 311 312 313 314 315 317 319 319 316 313 312 310 308 304 301 297 290 283 276 270 261 253 248 242 236 232 227 223 221 219
201 202 206 209 213 217 220 224 229 231 233 238 243 248 251 252 255 257 259 262 265 268 270 272 273 275 278 281 283 286 288 290 291 293 294 296 297 297 297 297 297 295 295 296 297 296 296 297 297 297 299 299 300 302 305 308 309 311 312 313 316 318 317 315 312 309 308 306 302 297 294 290 283 278 272 264 256 251 245 239 235 229 224 222 221
208 210 213 215 217 220 224 228 232 235 238 241 245 250 252 254 256 257 261 263 266 269 271 272 274 277 279 282 284 286 288 290 291 294 296 298 300 300 299 298 298 296 295 296 296 296 296 297 299 299 299 298 298 300 301 304 307 310 311 311 314 316 316 315 310 307 306 305 302 297 294 290 285 280 275 267 259 253 249 243 239 231 226 224 223
212 218 220 221 223 225 228 231 235 238 240 243 248 252 254 256 258 260 263 265 268 270 272 274 276 279 281 283 286 288 290 291 293 296 298 299 301 301 300 299 299 298 297 296 296 296 296 298 299 300 298 296 296 296 296 299 303 306 307 309 311 313 315 314 310 306 303 302 301 298 293 291 286 282 277 270 262 256 251 246 241 234 228 225 222
218 223 225 226 228 230 233 236 239 242 245 247 251 254 257 259 261 264 266 268 270 272 273 275 277 280 283 285 287 290 292 295 297 298 299 300 301 301 301 301 300 299 298 297 297 296 296 297 298 298 297 295 294 295 295 296 299 304 305 306 309 311 312 312 310 305 301 300 299 297 294 293 288 282 278 272 265 258 252 247 243 236 230 225 221
224 228 229 231 233 234 237 240 243 248 250 251 254 258 260 263 265 267 269 271 273 274 275 276 279 281 284 286 289 292 295 298 299 300 300 301 302 302 302 301 300 300 299 297 296 296 297 298 298 297 296 295 294 296 297 295 296 303 306 307 308 309 309 309 308 304 299 297 295 294 294 294 290 284 279 274 269 262 255 248 243 238 231 226 222
231 236 238 239 240 240 241 243 245 249 251 253 256 260 262 264 266 267 270 272 274 275 276 277 280 282 285 288 292 295 298 299 300 301 301 302 302 302 301 301 300 300 299 298 296 296 298 298 297 296 294 293 293 294 296 293 294 299 304 306 307 306 306 306 305 302 299 296 291 290 292 294 293 288 283 277 272 265 258 250 244 239 233 227 222
239 242 245 248 248 247 247 246 247 248 250 253 257 260 263 265 266 267 270 273 275 277 279 280 282 285 288 292 295 298 300 301 301 302 303 303 303 302 302 301 301 301 300 299 297 298 299 298 297 296 294 293 292 291 291 291 292 296 300 304 305 303 301 303 302 302 300 295 289 288 291 294 295 293 288 282 275 268 260 253 246 240 235 229 223
251 250 251 254 253 252 252 250 250 252 253 254 258 262 265 266 267 269 272 275 277 279 281 283 285 288 291 294 297 299 301 302 303 304 304 304 304 304 303 303 302 302 301 300 299 300 299 298 297 295 294 294 293 290 288 288 290 295 299 300 302 300 298 301 302 301 299 293 289 289 293 297 298 297 294 288 281 273 263 255 247 240 236 229 223
258 258 257 258 255 253 253 253 253 255 257 257 261 265 267 268 270 272 274 276 279 281 284 285 287 290 293 296 298 299 301 303 304 304 305 305 305 304 304 303 303 302 302 301 301 302 300 298 297 295 294 294 293 290 289 286 284 292 298 297 297 296 296 299 300 299 294 292 291 292 297 300 300 300 299 294 286 277 268 258 248 241 236 229 222
259 259 259 259 258 256 255 256 256 257 259 261 263 267 269 271 272 274 276 277 280 282 285 287 290 292 295 296 298 300 302 303 305 305 305 306 305 305 304 303 303 304 304 304 304 303 301 299 297 295 292 292 292 291 289 283 278 288 295 293 293 294 296 298 298 295 291 291 291 294 300 302 303 303 302 298 290 281 271 261 251 242 236 230 222
258 258 258 260 260 259 258 259 261 261 263 266 266 267 269 270 273 275 276 278 281 283 287 290 292 293 295 296 298 301 303 305 306 307 307 308 308 307 306 305 305 307 308 306 306 306 304 301 298 295 292 290 290 290 287 279 277 287 291 289 290 293 296 297 296 293 290 291 292 296 301 302 305 308 306 301 294 286 275 264 253 243 236 229 220
258 259 259 262 262 260 259 262 266 266 268 269 267 267 268 270 272 275 278 279 282 285 287 290 292 294 296 296 298 301 304 307 308 310 310 310 309 308 308 309 310 310 310 309 309 309 308 305 300 296 292 289 288 288 285 276 276 285 287 286 289 292 296 297 295 292 292 293 295 299 302 304 307 308 308 304 299 292 280 267 256 243 233 226 218
258 261 261 261 261 261 260 262 266 270 272 271 268 266 267 269 272 275 278 280 282 285 288 290 292 294 296 297 300 305 308 310 311 312 312 311 311 310 311 312 313 313 313 312 312 313 311 310 307 300 293 289 285 283 278 270 273 283 285 286 290 293 295 296 293 291 293 295 298 302 305 307 309 309 310 309 306 299 287 273 261 243 228 222 216
258 262 261 259 260 261 261 261 264 269 273 272 267 264 266 269 271 274 277 280 283 286 288 290 292 293 295 299 305 309 311 312 313 313 313 314 314 315 316 316 316 316 317 316 316 315 314 314 314 307 297 287 277 273 271 268 273 281 285 288 290 293 294 294 293 291 293 296 300 305 307 309 311 311 312 312 310 305 296 281 264 241 224 219 215
261 262 262 261 261 261 262 263 267 271 273 274 269 265 267 270 273 276 278 281 283 285 288 290 292 294 298 303 307 310 312 314 315 316 317 318 319 320 321 321 320 321 321 322 321 320 319 318 319 316 309 288 264 265 271 271 275 280 287 292 291 292 291 290 290 290 292 295 299 305 308 309 311 313 314 314 312 308 302 289 268 239 222 217 213
262 262 262 263 264 263 264 266 269 272 273 275 272 269 270 273 277 279 281 282 284 285 289 292 293 296 302 307 310 312 315 316 318 321 323 324 325 326 327 328 329 328 328 329 330 329 325 324 324 327 333 310 272 276 281 278 279 285 292 295 293 291 289 288 289 291 294 296 298 303 307 309 312 314 315 315 313 311 307 298 281 241 219 214 210
262 262 261 262 264 265 265 267 269 271 272 273 271 271 273 276 279 281 282 283 283 286 289 292 295 300 306 310 312 315 318 320 324 327 329 330 332 334 337 340 340 338 338 339 341 341 336 331 328 330 337 319 300 292 285 292 298 298 298 297 293 290 290 288 289 293 295 296 297 300 304 309 312 314 313 314 313 311 309 301 290 255 221 213 208
268 264 260 260 262 264 265 268 270 270 272 273 272 273 276 279 282 283 284 284 284 286 289 293 296 301 307 312 315 319 322 327 330 332 333 335 338 341 344 345 345 345 346 348 351 355 356 354 347 340 338 325 312 295 287 304 310 307 305 300 293 291 291 288 289 297 299 297 298 299 302 308 311 313 312 311 311 308 306 300 290 270 233 216 210
271 267 263 264 264 265 268 270 272 273 276 278 276 277 280 284 288 290 290 289 289 290 293 296 299 305 311 316 320 324 329 333 335 336 337 339 342 345 346 346 349 351 353 354 357 3 10 14 14 4 353 344 332 312 304 311 314 310 307 302 295 291 290 288 291 300 303 300 299 299 302 307 310 312 312 309 309 306 301 297 288 274 243 220 213
273 270 268 269 269 271 273 273 274 276 279 281 281 281 283 286 292 297 298 298 298 298 299 302 306 312 316 321 326 331 335 338 341 341 341 343 344 346 348 349 352 355 357 359 1 3 9 14 15 8 355 350 344 330 319 315 315 313 308 303 300 296 292 292 298 303 305 304 301 299 302 304 306 309 310 307 306 305 298 291 282 272 252 228 218
284 274 268 271 275 278 278 276 276 277 279 282 284 285 285 286 293 299 300 301 303 303 305 310 314 316 320 326 332 337 341 344 346 346 346 347 347 348 351 353 354 357 358 360 2 2 5 8 8 2 350 343 336 331 326 321 321 319 313 306 301 299 298 301 304 303 302 304 302 299 300 301 302 304 307 307 303 300 295 288 278 268 256 236 226
302 284 273 274 279 281 283 282 281 281 282 285 287 288 288 288 291 294 296 299 303 305 309 314 318 320 326 333 337 342 345 347 348 349 350 350 351 353 354 356 356 358 359 0 2 3 3 3 1 358 351 342 332 326 325 323 323 321 317 311 304 302 303 304 304 299 296 299 300 299 300 301 303 303 304 306 302 296 289 283 276 266 256 243 234
321 307 293 288 288 289 290 290 289 287 286 288 291 292 291 291 292 293 294 298 302 308 314 317 323 328 333 337 343 347 348 348 349 350 352 353 355 357 358 360 359 360 0 360 360 360 0 359 356 352 350 343 333 327 325 321 319 319 316 311 306 303 302 302 301 298 294 294 295 296 299 301 303 303 305 305 301 296 286 278 272 266 258 249 240
336 327 316 306 301 298 297 294 293 292 291 293 295 296 298 297 298 298 298 300 304 312 318 323 331 335 338 344 349 351 349 349 351 351 353 355 356 358 360 0 360 359 359 358 357 356 355 353 350 347 345 340 335 329 325 320 316 317 315 310 306 303 302 301 300 299 296 293 291 291 294 297 299 301 303 303 299 293 285 275 268 263 258 252 246
345 338 329 319 311 306 303 297 295 296 296 300 300 300 304 303 304 306 304 306 312 320 330 336 340 340 345 352 351 350 349 351 351 352 354 356 356 357 358 358 357 357 356 355 354 352 350 347 345 343 340 337 335 331 326 322 319 319 318 315 311 307 305 303 301 300 297 295 292 289 290 292 293 296 299 300 298 291 282 273 265 261 258 254 250
346 341 336 328 320 315 312 306 306 307 301 303 303 302 306 308 308 309 310 318 328 337 345 346 346 347 350 351 348 348 349 351 353 355 356 357 356 355 355 356 355 353 352 351 351 349 348 345 342 338 335 332 331 329 325 323 322 321 320 319 317 313 310 307 305 303 299 296 293 291 291 290 288 291 293 294 295 291 284 276 266 262 259 254 250
347 342 340 335 331 328 322 317 324 325 310 308 307 304 307 310 311 313 321 338 349 354 355 353 353 352 352 350 348 348 348 350 354 356 357 357 356 355 354 354 352 350 348 347 346 346 344 342 340 337 333 329 325 324 323 321 320 319 319 318 317 317 314 311 311 308 303 299 295 292 292 292 290 289 288 290 291 288 284 279 270 263 259 255 251
344 340 341 340 335 330 325 321 324 326 320 317 312 308 310 312 319 329 336 345 355 360 359 358 357 354 352 351 349 348 349 352 355 355 354 354 354 354 354 353 352 349 348 345 343 342 341 340 338 337 334 330 325 323 323 322 320 318 319 318 315 316 314 311 310 308 304 301 298 294 292 294 292 289 286 287 288 284 282 279 273 267 261 258 254